Time,TemperatureF,DewpointF,PressureIn,WindDirection,WindDirectionDegrees,WindSpeedMPH,WindSpeedGustMPH,Humidity,HourlyPrecipIn,Conditions,Clouds,dailyrainin,SoftwareType,DateUTC
2013-06-17 00:14:00,64.3,63.0,29.79,WNW,285,1.0,10.0,94,0.00,,,0.00,weatherlink.com 1.10,2013-06-17 04:14:00,
2013-06-17 00:29:00,64.4,62.0,29.79,WSW,248,2.0,9.0,93,0.00,,,0.00,weatherlink.com 1.10,2013-06-17 04:29:00,
2013-06-17 00:44:00,64.2,63.0,29.79,WSW,247,4.0,8.0,94,0.00,,,0.00,weatherlink.com 1.10,2013-06-17 04:44:00,
2013-06-17 00:59:00,64.0,62.0,29.79,SW,221,4.0,7.0,94,0.00,,,0.00,weatherlink.com 1.10,2013-06-17 04:59:00,
2013-06-17 01:14:00,64.1,63.0,29.79,West,274,4.0,6.0,95,0.00,,,0.00,weatherlink.com 1.10,2013-06-17 05:14:00,
2013-06-17 01:29:00,63.9,63.0,29.79,WSW,248,3.0,9.0,95,0.00,,,0.00,weatherlink.com 1.10,2013-06-17 05:29:00,
2013-06-17 01:45:00,63.9,63.0,29.80,WSW,245,4.0,8.0,95,0.00,,,0.00,weatherlink.com 1.10,2013-06-17 05:45:00,
2013-06-17 02:00:00,64.0,63.0,29.80,WSW,255,0.0,6.0,96,0.00,,,0.00,weatherlink.com 1.10,2013-06-17 06:00:00,
2013-06-17 02:15:00,63.9,63.0,29.80,WSW,256,1.0,3.0,96,0.00,,,0.00,weatherlink.com 1.10,2013-06-17 06:15:00,
2013-06-17 02:30:00,63.8,63.0,29.81,WNW,293,2.0,5.0,96,0.00,,,0.00,weatherlink.com 1.10,2013-06-17 06:30:00,
2013-06-17 02:46:00,63.6,63.0,29.81,WNW,302,1.0,4.0,96,0.00,,,0.00,weatherlink.com 1.10,2013-06-17 06:46:00,
2013-06-17 03:00:00,63.5,62.0,29.81,WNW,296,0.0,4.0,96,0.00,,,0.00,weatherlink.com 1.10,2013-06-17 07:00:00,
2013-06-17 03:15:00,63.4,62.0,29.81,SW,224,2.0,4.0,96,0.00,,,0.00,weatherlink.com 1.10,2013-06-17 07:15:00,
2013-06-17 03:30:00,63.4,62.0,29.82,WNW,294,0.0,4.0,96,0.00,,,0.00,weatherlink.com 1.10,2013-06-17 07:30:00,
2013-06-17 03:45:00,63.1,62.0,29.82,West,271,0.0,3.0,96,0.00,,,0.00,weatherlink.com 1.10,2013-06-17 07:45:00,
2013-06-17 04:00:00,63.0,62.0,29.82,WNW,300,2.0,2.0,97,0.00,,,0.00,weatherlink.com 1.10,2013-06-17 08:00:00,
2013-06-17 04:15:00,62.8,62.0,29.82,NW,312,1.0,4.0,96,0.00,,,0.00,weatherlink.com 1.10,2013-06-17 08:15:00,
2013-06-17 04:30:00,62.4,61.0,29.82,WNW,297,1.0,2.0,96,0.00,,,0.00,weatherlink.com 1.10,2013-06-17 08:30:00,
2013-06-17 04:45:00,62.1,61.0,29.82,NW,324,0.0,2.0,95,0.00,,,0.00,weatherlink.com 1.10,2013-06-17 08:45:00,
2013-06-17 05:00:00,61.8,60.0,29.82,NW,312,0.0,2.0,95,0.00,,,0.00,weatherlink.com 1.10,2013-06-17 09:00:00,
2013-06-17 05:15:00,61.4,60.0,29.83,WNW,302,1.0,1.0,95,0.00,,,0.00,weatherlink.com 1.10,2013-06-17 09:15:00,
2013-06-17 05:30:00,61.7,60.0,29.84,WNW,284,1.0,2.0,95,0.00,,,0.00,weatherlink.com 1.10,2013-06-17 09:30:00,
2013-06-17 05:45:00,61.5,60.0,29.84,WNW,287,0.0,1.0,95,0.00,,,0.00,weatherlink.com 1.10,2013-06-17 09:45:00,
2013-06-17 06:00:00,61.4,60.0,29.84,WNW,293,0.0,1.0,95,0.00,,,0.00,weatherlink.com 1.10,2013-06-17 10:00:00,
2013-06-17 06:15:00,61.7,60.0,29.85,WNW,294,0.0,1.0,95,0.00,,,0.00,weatherlink.com 1.10,2013-06-17 10:15:00,
2013-06-17 06:30:00,62.4,61.0,29.85,West,279,0.0,2.0,95,0.00,,,0.00,weatherlink.com 1.10,2013-06-17 10:30:00,
2013-06-17 06:45:00,62.9,61.0,29.86,WSW,248,1.0,2.0,94,0.00,,,0.00,weatherlink.com 1.10,2013-06-17 10:45:00,
2013-06-17 07:00:00,63.5,62.0,29.86,WSW,244,0.0,3.0,94,0.00,,,0.00,weatherlink.com 1.10,2013-06-17 11:00:00,
2013-06-17 07:15:00,64.5,63.0,29.86,SW,222,1.0,7.0,93,0.00,,,0.00,weatherlink.com 1.10,2013-06-17 11:15:00,
2013-06-17 07:30:00,65.2,64.0,29.86,SSW,203,1.0,4.0,94,0.00,,,0.00,weatherlink.com 1.10,2013-06-17 11:30:00,
2013-06-17 07:45:00,65.5,64.0,29.87,West,262,0.0,5.0,94,0.00,,,0.00,weatherlink.com 1.10,2013-06-17 11:45:00,
2013-06-17 08:00:00,65.7,64.0,29.87,WSW,243,1.0,4.0,93,0.00,,,0.00,weatherlink.com 1.10,2013-06-17 12:00:00,
2013-06-17 08:15:00,66.0,64.0,29.88,SSW,203,1.0,4.0,93,0.00,,,0.00,weatherlink.com 1.10,2013-06-17 12:15:00,
2013-06-17 08:30:00,66.7,65.0,29.87,West,267,1.0,2.0,93,0.00,,,0.00,weatherlink.com 1.10,2013-06-17 12:30:00,
2013-06-17 08:45:00,68.1,65.0,29.88,SW,229,1.0,2.0,91,0.00,,,0.00,weatherlink.com 1.10,2013-06-17 12:45:00,
2013-06-17 09:00:00,68.2,65.0,29.88,WSW,253,0.0,9.0,90,0.00,,,0.00,weatherlink.com 1.10,2013-06-17 13:00:00,
2013-06-17 09:15:00,67.9,65.0,29.87,West,264,3.0,8.0,89,0.00,,,0.00,weatherlink.com 1.10,2013-06-17 13:15:00,
2013-06-17 09:30:00,68.7,65.0,29.87,SW,225,3.0,7.0,89,0.00,,,0.00,weatherlink.com 1.10,2013-06-17 13:30:00,
2013-06-17 09:45:00,69.1,66.0,29.87,WSW,252,7.0,9.0,88,0.00,,,0.00,weatherlink.com 1.10,2013-06-17 13:45:00,
2013-06-17 10:00:00,69.0,65.0,29.87,SW,233,9.0,10.0,87,0.00,,,0.00,weatherlink.com 1.10,2013-06-17 14:00:00,
2013-06-17 10:15:00,67.5,64.0,29.87,SSW,211,10.0,12.0,89,0.00,,,0.00,weatherlink.com 1.10,2013-06-17 14:15:00,
2013-06-17 10:30:00,68.8,65.0,29.88,West,277,7.0,13.0,87,0.00,,,0.00,weatherlink.com 1.10,2013-06-17 14:30:00,
2013-06-17 10:46:00,69.7,65.0,29.88,SSW,205,5.0,13.0,86,0.00,,,0.00,weatherlink.com 1.10,2013-06-17 14:46:00,
2013-06-17 11:01:00,68.6,65.0,29.88,SSW,212,8.0,13.0,87,0.00,,,0.00,weatherlink.com 1.10,2013-06-17 15:01:00,
2013-06-17 11:16:00,69.2,65.0,29.88,SW,214,7.0,13.0,87,0.00,,,0.00,weatherlink.com 1.10,2013-06-17 15:16:00,
2013-06-17 11:31:00,68.2,65.0,29.88,SSW,212,7.0,12.0,88,0.00,,,0.00,weatherlink.com 1.10,2013-06-17 15:31:00,
2013-06-17 11:46:00,69.2,65.0,29.88,NNW,332,2.0,8.0,87,0.00,,,0.00,weatherlink.com 1.10,2013-06-17 15:46:00,
2013-06-17 12:01:00,68.1,64.0,29.87,SW,217,12.0,13.0,87,0.00,,,0.00,weatherlink.com 1.10,2013-06-17 16:01:00,
2013-06-17 12:16:00,67.8,64.0,29.87,SW,224,11.0,13.0,88,0.00,,,0.00,weatherlink.com 1.10,2013-06-17 16:16:00,
2013-06-17 12:31:00,68.6,65.0,29.87,SW,228,8.0,13.0,87,0.00,,,0.00,weatherlink.com 1.10,2013-06-17 16:31:00,
2013-06-17 12:46:00,68.6,65.0,29.87,SW,215,12.0,15.0,87,0.00,,,0.00,weatherlink.com 1.10,2013-06-17 16:46:00,
2013-06-17 13:01:00,69.2,66.0,29.86,SW,226,6.0,16.0,88,0.00,,,0.00,weatherlink.com 1.10,2013-06-17 17:01:00,
2013-06-17 13:16:00,69.4,65.0,29.86,SSW,212,14.0,16.0,87,0.00,,,0.00,weatherlink.com 1.10,2013-06-17 17:16:00,
2013-06-17 13:31:00,69.1,65.0,29.86,SW,225,16.0,18.0,87,0.00,,,0.00,weatherlink.com 1.10,2013-06-17 17:31:00,
2013-06-17 13:46:00,68.2,65.0,29.86,SW,214,16.0,19.0,89,0.00,,,0.00,weatherlink.com 1.10,2013-06-17 17:46:00,
2013-06-17 14:01:00,68.3,65.0,29.86,SW,221,17.0,18.0,88,0.00,,,0.00,weatherlink.com 1.10,2013-06-17 18:01:00,
2013-06-17 14:16:00,68.2,65.0,29.86,SW,226,14.0,17.0,89,0.00,,,0.00,weatherlink.com 1.10,2013-06-17 18:16:00,
2013-06-17 14:31:00,67.5,64.0,29.87,SW,219,16.0,19.0,89,0.00,,,0.00,weatherlink.com 1.10,2013-06-17 18:31:00,
2013-06-17 14:46:00,67.1,65.0,29.87,WSW,245,16.0,17.0,91,0.00,,,0.00,weatherlink.com 1.10,2013-06-17 18:46:00,
2013-06-17 15:01:00,67.1,64.0,29.86,SW,217,13.0,18.0,89,0.00,,,0.00,weatherlink.com 1.10,2013-06-17 19:01:00,
2013-06-17 15:16:00,66.7,64.0,29.85,SSW,210,11.0,18.0,91,0.00,,,0.00,weatherlink.com 1.10,2013-06-17 19:16:00,
2013-06-17 15:31:00,66.8,64.0,29.85,WSW,249,7.0,18.0,90,0.00,,,0.00,weatherlink.com 1.10,2013-06-17 19:31:00,
2013-06-17 15:46:00,68.3,65.0,29.85,SW,215,4.0,18.0,89,0.00,,,0.00,weatherlink.com 1.10,2013-06-17 19:46:00,
2013-06-17 16:01:00,68.4,64.0,29.85,WSW,253,2.0,13.0,87,0.00,,,0.00,weatherlink.com 1.10,2013-06-17 20:01:00,
2013-06-17 16:16:00,69.4,65.0,29.84,WNW,285,4.0,12.0,86,0.00,,,0.00,weatherlink.com 1.10,2013-06-17 20:16:00,
2013-06-17 16:31:00,69.4,65.0,29.84,SSE,149,3.0,13.0,85,0.00,,,0.00,weatherlink.com 1.10,2013-06-17 20:31:00,
2013-06-17 16:46:00,69.3,65.0,29.84,WSW,249,5.0,18.0,86,0.00,,,0.00,weatherlink.com 1.10,2013-06-17 20:46:00,
2013-06-17 17:01:00,69.3,65.0,29.84,West,263,3.0,14.0,86,0.00,,,0.00,weatherlink.com 1.10,2013-06-17 21:01:00,
2013-06-17 17:16:00,68.5,65.0,29.84,WSW,253,9.0,15.0,87,0.00,,,0.00,weatherlink.com 1.10,2013-06-17 21:16:00,
2013-06-17 17:31:00,68.9,65.0,29.84,WSW,250,4.0,11.0,87,0.00,,,0.00,weatherlink.com 1.10,2013-06-17 21:31:00,
2013-06-17 17:46:00,68.7,65.0,29.83,SW,225,2.0,9.0,87,0.00,,,0.00,weatherlink.com 1.10,2013-06-17 21:46:00,
2013-06-17 18:01:00,67.4,64.0,29.84,WNW,298,2.0,14.0,89,0.00,,,0.00,weatherlink.com 1.10,2013-06-17 22:01:00,
2013-06-17 18:16:00,66.5,64.0,29.83,SW,224,4.0,12.0,90,0.00,,,0.00,weatherlink.com 1.10,2013-06-17 22:16:00,
2013-06-17 18:31:00,66.0,63.0,29.84,WSW,250,4.0,12.0,91,0.00,,,0.00,weatherlink.com 1.10,2013-06-17 22:31:00,
2013-06-17 18:46:00,66.3,64.0,29.86,WSW,245,4.0,9.0,91,0.00,,,0.00,weatherlink.com 1.10,2013-06-17 22:46:00,
2013-06-17 19:01:00,66.0,63.0,29.87,SW,226,7.0,10.0,91,0.00,,,0.00,weatherlink.com 1.10,2013-06-17 23:01:00,
2013-06-17 19:16:00,65.1,63.0,29.87,WNW,284,2.0,12.0,93,0.00,,,0.00,weatherlink.com 1.10,2013-06-17 23:16:00,
2013-06-17 19:31:00,65.1,63.0,29.89,WNW,294,5.0,11.0,94,0.00,,,0.00,weatherlink.com 1.10,2013-06-17 23:31:00,
2013-06-17 19:46:00,65.4,64.0,29.90,NW,313,1.0,5.0,94,0.00,,,0.00,weatherlink.com 1.10,2013-06-17 23:46:00,
2013-06-17 20:01:00,66.6,61.0,29.91,NW,316,10.0,19.0,83,0.00,,,0.00,weatherlink.com 1.10,2013-06-18 00:01:00,
2013-06-17 20:16:00,65.6,61.0,29.91,NW,323,4.0,13.0,84,0.00,,,0.00,weatherlink.com 1.10,2013-06-18 00:16:00,
2013-06-17 20:31:00,65.2,61.0,29.91,NNW,342,4.0,11.0,85,0.00,,,0.00,weatherlink.com 1.10,2013-06-18 00:31:00,
2013-06-17 20:46:00,65.1,61.0,29.91,NNW,328,3.0,11.0,86,0.00,,,0.00,weatherlink.com 1.10,2013-06-18 00:46:00,
2013-06-17 21:01:00,64.9,61.0,29.91,NW,321,4.0,7.0,87,0.00,,,0.00,weatherlink.com 1.10,2013-06-18 01:01:00,
2013-06-17 21:17:00,64.6,61.0,29.91,WSW,248,0.0,4.0,88,0.00,,,0.00,weatherlink.com 1.10,2013-06-18 01:17:00,
2013-06-17 21:31:00,64.4,61.0,29.92,SW,225,0.0,1.0,89,0.00,,,0.00,weatherlink.com 1.10,2013-06-18 01:31:00,
2013-06-17 21:46:00,63.9,61.0,29.91,SW,225,0.0,1.0,90,0.00,,,0.00,weatherlink.com 1.10,2013-06-18 01:46:00,
2013-06-17 22:01:00,63.9,62.0,29.91,SW,225,0.0,1.0,93,0.00,,,0.00,weatherlink.com 1.10,2013-06-18 02:01:00,
2013-06-17 22:16:00,64.6,62.0,29.90,South,181,3.0,4.0,91,0.00,,,0.00,weatherlink.com 1.10,2013-06-18 02:16:00,
2013-06-17 22:31:00,65.2,62.0,29.89,West,274,1.0,8.0,90,0.00,,,0.00,weatherlink.com 1.10,2013-06-18 02:31:00,
2013-06-17 22:46:00,64.7,62.0,29.89,South,169,4.0,5.0,92,0.00,,,0.00,weatherlink.com 1.10,2013-06-18 02:46:00,
2013-06-17 23:01:00,65.0,62.0,29.90,SSW,208,4.0,8.0,91,0.00,,,0.00,weatherlink.com 1.10,2013-06-18 03:01:00,
2013-06-17 23:16:00,64.6,62.0,29.90,SW,221,6.0,11.0,90,0.00,,,0.00,weatherlink.com 1.10,2013-06-18 03:16:00,
2013-06-17 23:31:00,63.8,62.0,29.91,SW,229,3.0,4.0,92,0.00,,,0.00,weatherlink.com 1.10,2013-06-18 03:31:00,
2013-06-17 23:46:00,63.7,61.0,29.90,SW,236,0.0,4.0,92,0.00,,,0.00,weatherlink.com 1.10,2013-06-18 03:46:00,